DW1590 Weather Reports


Display with metric or nautical units.
time (UTC)temp
F
wind
direction
speed
MPH
gust
MPH
rain 1hr
in
rain 24hr
in
rain mn
in
humidity
%
barometer
mb
20260507163035 57 40 2.0 0.0 0.00 0.00 0.14 58 1010.8
20260507161539 56 284 2.0 0.0 0.00 0.00 0.14 59 1010.9
20260507160024 56 355 3.0 0.0 0.00 0.00 0.14 60 1011.2
20260507154519 55 10 3.0 0.0 0.00 0.00 0.14 61 1011.3
20260507153015 55 343 1.0 0.0 0.00 0.00 0.14 59 1011.3
20260507151511 54 306 3.0 0.0 0.00 0.00 0.14 53 1011.4
20260507150008 53 33 3.0 0.0 0.00 0.00 0.14 41 1011.5
20260507144502 53 32 3.0 0.0 0.00 0.00 0.14 24 1011.7
20260507143103 53 17 2.0 0.0 0.00 0.00 0.14 100 1011.8
20260507141600 52 27 2.0 0.0 0.00 0.00 0.14 100 1011.9
20260507140050 52 325 2.0 0.0 0.00 0.00 0.14 100 1012.2
20260507134549 51 342 3.0 0.0 0.00 0.00 0.14 100 1012.1
20260507133108 51 329 3.0 0.0 0.00 0.00 0.14 100 1012.2
20260507131543 51 317 2.0 0.0 0.00 0.00 0.14 100 1012.2
20260507130036 51 340 3.0 0.0 0.00 0.00 0.14 100 1012.2
20260507124528 52 328 3.0 0.0 0.00 0.00 0.14 100 1012.0
20260507123034 53 355 2.0 0.0 0.00 0.00 0.14 100 1011.9
20260507121519 53 290 2.0 0.0 0.00 0.00 0.14 100 1011.9
20260507120014 54 9 2.0 0.0 0.00 0.00 0.14 100 1011.7
20260507114510 54 360 2.0 0.0 0.00 0.00 0.14 100 1011.7
20260507113010 54 342 0.0 0.0 0.00 0.00 0.14 100 1011.4
20260507111500 54 327 0.0 0.0 0.00 0.00 0.14 100 1011.7
20260507110100 54 333 0.0 0.0 0.00 0.00 0.14 100 1011.4
20260507104553 54 333 0.0 0.0 0.00 0.00 0.14 100 1011.4
20260507103054 54 333 0.0 0.0 0.00 0.00 0.14 100 1011.3
20260507101547 54 333 0.0 0.0 0.00 0.00 0.14 100 1011.0
20260507100039 54 333 0.0 0.0 0.00 0.00 0.13 100 1010.9
20260507094542 54 334 0.0 0.0 0.00 0.00 0.13 100 1010.9
20260507093030 54 334 0.0 0.0 0.00 0.00 0.13 100 1010.7
20260507091532 54 335 0.0 0.0 0.00 0.00 0.13 100 1010.9
20260507090021 54 334 0.0 0.0 0.00 0.00 0.13 100 1010.9
20260507084520 54 334 0.0 0.0 0.00 0.00 0.13 100 1010.4
20260507083013 54 334 1.0 0.0 0.00 0.00 0.13 100 1010.3
20260507081509 54 355 1.0 0.0 0.00 0.00 0.13 100 1010.0
20260507080005 54 342 3.0 0.0 0.00 0.00 0.13 100 1009.9
20260507074604 55 355 3.0 0.0 0.00 0.00 0.13 100 1009.9
20260507073107 55 9 4.0 0.0 0.00 0.00 0.13 100 1009.8
20260507071552 55 338 5.0 0.0 0.00 0.00 0.13 100 1009.7
20260507070056 56 341 4.0 0.0 0.00 0.00 0.13 100 1009.7
20260507064549 56 355 2.0 0.0 0.00 0.00 0.13 100 1009.8
20260507063038 57 346 4.0 0.0 0.00 0.00 0.13 100 1009.7
20260507061537 57 26 4.0 0.0 0.00 0.00 0.13 100 1009.5
20260507060029 58 344 3.0 0.0 0.00 0.00 0.13 100 1009.8
20260507054525 59 318 3.0 0.0 0.00 0.00 0.13 100 1009.9
20260507053021 60 323 4.0 0.0 0.00 0.00 0.12 100 1009.8
20260507051517 60 309 3.0 0.0 0.00 0.00 0.11 100 1009.9
20260507050021 61 311 4.0 0.0 0.00 0.00 0.04 100 1010.0
20260507044507 62 284 5.0 0.0 0.00 0.00 0.00 100 1009.9
20260507043003 62 309 5.0 0.0 0.00 0.00 0.00 100 1009.8
20260507041559 63 340 5.0 0.0 0.00 0.00 0.00 6 1009.8
20260507034556 63 355 4.0 0.0 0.00 0.00 0.11 12 1009.2
20260507033100 64 296 4.0 0.0 0.00 0.00 0.11 9 1009.3
20260507031556 64 355 4.0 0.0 0.00 0.00 0.11 100 1009.2
20260507030100 65 329 4.0 0.0 0.00 0.00 0.11 100 1009.1
20260507024548 66 13 5.0 0.0 0.00 0.00 0.11 100 1008.6
20260507023031 67 296 5.0 0.0 0.00 0.00 0.11 100 1008.7
20260507021526 67 322 4.0 0.0 0.00 0.00 0.11 100 1008.1
20260507020024 67 348 5.0 0.0 0.00 0.00 0.11 100 1008.2
20260507014521 67 265 2.0 0.0 0.00 0.00 0.11 100 1008.3
20260507013016 67 275 1.0 0.0 0.00 0.00 0.11 100 1008.7
20260507011524 68 338 1.0 0.0 0.00 0.00 0.11 100 1008.6
20260507010004 68 215 0.0 0.0 0.00 0.00 0.11 100 1008.3
20260507004600 68 211 0.0 0.0 0.00 0.00 0.11 100 1008.2
20260507003101 68 209 1.0 0.0 0.00 0.00 0.11 100 1007.9
20260507001552 68 205 1.0 0.0 0.00 0.00 0.11 100 1007.7
20260507000049 69 190 1.0 0.0 0.00 0.00 0.11 100 1007.8
20260506234552 69 107 0.0 0.0 0.00 0.00 0.11 100 1007.6
20260506233047 69 196 1.0 0.0 0.00 0.00 0.11 100 1007.6
20260506231535 69 200 1.0 0.0 0.00 0.00 0.11 100 1007.0
20260506230029 70 162 1.0 0.0 0.00 0.00 0.11 100 1007.1
20260506224526 70 198 1.0 0.0 0.00 0.00 0.11 100 1006.9
20260506223021 69 177 2.0 0.0 0.00 0.00 0.11 100 1007.0
20260506221516 69 200 4.0 0.0 0.00 0.00 0.11 100 1007.0
20260506220012 70 208 2.0 0.0 0.00 0.00 0.11 100 1007.1
20260506214507 70 183 4.0 0.0 0.00 0.00 0.11 100 1007.0
20260506213003 70 192 2.0 0.0 0.00 0.00 0.11 100 1006.8
20260506211559 70 225 2.0 0.0 0.00 0.00 0.11 100 1006.8
20260506210054 70 201 3.0 0.0 0.00 0.00 0.11 100 1006.7
20260506204551 69 208 2.0 0.0 0.00 0.00 0.11 100 1006.6
20260506203046 69 213 3.0 0.0 0.00 0.00 0.11 100 1006.6
20260506201542 69 192 5.0 0.0 0.00 0.00 0.11 100 1006.6
20260506200040 70 200 3.0 0.0 0.00 0.00 0.11 100 1006.7
20260506194533 70 217 4.0 0.0 0.00 0.00 0.11 100 1006.4
20260506193028 70 254 2.0 0.0 0.00 0.00 0.11 100 1006.6
20260506191524 70 217 5.0 0.0 0.00 0.00 0.11 100 1006.8
20260506190020 69 216 4.0 0.0 0.00 0.00 0.11 100 1006.9
20260506184515 67 227 4.0 0.0 0.00 0.00 0.11 100 1007.2
20260506183012 66 254 5.0 0.0 0.00 0.00 0.11 100 1007.3
20260506181506 65 213 6.0 0.0 0.00 0.00 0.11 100 1007.4
20260506180002 64 235 4.0 0.0 0.00 0.00 0.11 100 1007.6
20260506174558 64 199 5.0 0.0 0.00 0.00 0.11 100 1007.8
20260506173124 63 216 5.0 0.0 0.00 0.00 0.11 100 1007.7
20260506171549 63 229 5.0 0.0 0.00 0.00 0.11 100 1007.7
20260506170046 63 199 5.0 0.0 0.00 0.00 0.11 100 1007.7
20260506164541 62 196 5.0 0.0 0.00 0.00 0.11 100 1007.9